Regional Weather Roundup
Issued by NWS

Home | Current Version | Previous Version | Graphics & Text | Print | Product List | Glossary On
Versions: 1 2 3 4 5 6 7 8 9 10 11 12 13 14 15 16 17 18 19 20 21 22 23 24 25 26 27 28 29 30 31 32 33 34 35 36 37 38 39 40 41 42 43 44 45 46 47 48 49 50
000
ASUS43 KDMX 290707
RWRIA

WEATHER ROUNDUP FOR IOWA
NATIONAL WEATHER SERVICE DES MOINES IA
100 AM CST SAT NOV 29 2014

NOTE: "FAIR" INDICATES FEW OR NO CLOUDS BELOW 12,000 FEET WITH NO
SIGNIFICANT WEATHER AND/OR OBSTRUCTIONS TO VISIBILITY.

* - THESE STATIONS ARE NOT NWS STATIONS...THUS NOT UNDER NWS
QUALITY CONTROL.  THEY ALSO DO NOT REPORT WEATHER SUCH
AS PRECIPITATION OR FOG.

IAZ001>003-012>014-020>022-031>034-043>046-290800-
   NORTHWEST IOWA

CITY           SKY/WX    TMP DP  RH WIND       PRES   REMARKS
CARROLL *      CLEAR     28  27  93 CALM      29.57F
CHEROKEE *     PTCLDY    25  25 100 CALM      29.56F
DENISON *      CLEAR     39  32  75 S5        29.55F
LE MARS *      CLEAR     25  25 100 CALM      29.54F
ORANGE CITY *  CLEAR     28  25  86 CALM      29.53F
SHELDON *      CLEAR     23  21  93 E6        29.53F WCI  16
SIOUX CITY     PTCLDY    30  26  85 E7        29.54F WCI  23
SPENCER        PTCLDY    19  16  88 E5        29.57F FOG     WCI  12
STORM LAKE *   CLEAR     27  25  93 SE9       29.56F FOG     WCI  17
$$

IAZ055>058-069>071-079>083-090>094-290800-
   SOUTHWEST IOWA

CITY           SKY/WX    TMP DP  RH WIND       PRES   REMARKS
ATLANTIC *     CLEAR     34  30  86 SW7       29.59F WCI  28
AUDUBON *      CLEAR     39  30  70 CALM      29.59F
CLARINDA *     CLEAR     32  30  93 SW3       29.64F
COUNCIL BLFS * CLEAR     45  36  70 SW12      29.57F
CRESTON *      CLEAR     37  34  87 S9        29.62F WCI  31
HARLAN  *      CLEAR     34  32  93 S6        29.61F WCI  29
LAMONI         PTCLDY    39  33  79 S10       29.63F WCI  32
RED OAK *      CLEAR     36  32  87 S5        29.61F WCI  32
SHENANDOAH *   CLEAR     39  34  81 S5        29.62F
$$

IAZ047>049-059>061-072>074-084-290800-
   CENTRAL IOWA

CITY           SKY/WX    TMP DP  RH WIND       PRES   REMARKS
AMES             N/A     26  24  92 CALM      29.61F
ANKENY *       CLEAR     28  28 100 CALM      29.61F
CHARITON *     PTCLDY    39  34  81 S10       29.63F WCI  32
DES MOINES     PTCLDY    37  31  78 SE6       29.61F WCI  32
GRINNELL*      PTCLDY    28  27  93 SE6       29.64F WCI  22
KNOXVILLE *    CLEAR     37  32  81 S8        29.62F WCI  31
MARSHALLTOWN   CLEAR     28  26  92 SE9       29.63F WCI  19
PELLA *        PTCLDY    32  30  93 SE6       29.65F WCI  26
PERRY *          N/A     28  28 100 E5        29.59F WCI  23
$$

IAZ004>006-015-016-023>025-035-036-290800-
   NORTH CENTRAL IOWA

CITY           SKY/WX    TMP DP  RH WIND       PRES   REMARKS
ALGONA *       CLEAR     27  25  93 SE13      29.58F WCI  16
CLARION *      CLEAR     28  28 100 SE16      29.59F WCI  17
ESTHERVILLE    PTCLDY    15  14  95 SE7       29.57F FOG     WCI   5
FORT DODGE *   PTCLDY    28  25  86 SE6       29.59F WCI  22
MASON CITY     PTCLDY    23  22  96 SE8       29.63F FOG     WCI  14
FOREST CITY *  CLEAR     27  27 100 SE8       29.60F FOG     WCI  18
IOWA FALLS *     N/A     23  23 100 SE6       29.62F FOG     WCI  16
$$

IAZ007>011-017>019-026>030-037>042-050>054-066-290800-
   NORTHEAST IOWA

CITY           SKY/WX    TMP DP  RH WIND       PRES   REMARKS
CEDAR RAPIDS   PTCLDY    28  28 100 SE8       29.67F FOG     WCI  20
CHARLES CITY * CLOUDY    28  27  93 SE10      29.64F FOG     WCI  19
CLINTON *      CLEAR     32  28  86 SE13      29.76F WCI  22
DECORAH *      MOCLDY    27  25  93 VRB7G14   29.66F FOG     WCI  19
DUBUQUE        CLEAR     31  29  92 SE10      29.71F WCI  22
MONTICELLO *   CLEAR     32  30  93 SE9G16    29.70F WCI  24
OELWEIN *      CLEAR     30  28  93 SE14      29.66F FOG     WCI  20
WATERLOO       MOCLDY    28  27  96 SE8       29.65F FOG     WCI  20
$$

IAZ064-065-067-068-078-290800-
   EAST CENTRAL IOWA

CITY           SKY/WX    TMP DP  RH WIND       PRES   REMARKS
DAVENPORT      CLEAR     34  29  82 S13       29.73F WCI  25
IOWA CITY      PTCLDY    29  27  92 SE5       29.71F WCI  24
MT. PLEASANT * PTCLDY    36  32  87 SE9       29.71F WCI  29
MUSCATINE *    CLEAR     25  23  93 CALM      29.73F
QUAD CITIES    CLEAR     33  29  85 VRB5      29.73F WCI  29
$$

IAZ062-063-075>077-085>089-095>099-290800-
   SOUTHEAST IOWA

CITY           SKY/WX    TMP DP  RH WIND       PRES   REMARKS
BURLINGTON     PTCLDY    37  32  82 S9        29.73F WCI  30
FAIRFIELD *    CLEAR     37  32  81 S9        29.68F WCI  31
FORT MADISON * CLEAR     39  36  87 S9        29.72F WCI  33
KEOKUK *       CLEAR     46  36  66 S12G18    29.71F
OSKALOOSA *      N/A     32  30  93 SE9       29.66F WCI  24
CENTERVILLE *  CLEAR     45  37  76 S8        29.67F
OTTUMWA        PTCLDY    39  32  76 S10       29.65F WCI  32
WASHINGTON *   CLEAR     32  32 100 SE10      29.68F WCI  24
$$

ABBREVIATIONS USED IN REMARKS
   TC - TEMPERATURES IN CELSIUS
  WCI - WIND CHILL INDEX
   HX - HEAT INDEX
  VSB - VISIBILITY
$$



USA.gov is the U.S. government's official web portal to all federal, state and local government web resources and services.